Location: Unspecified
(52.4292°N, 19.3359°E)
Time: 17:16:52
(UTC+02:00)

Transit 2A Rocket - Pass Details

Date: 27 May 2024
Orbit: 583 x 910 km, 66.7° (Epoch: 14 June)

Event Time Altitude Azimuth Distance (km) Brightness Sun altitude
Rises 13:53:23 0° 307° (NW) 3,470 8.4 55.9°
Reaches altitude 10° 13:58:13 10° 272° (W) 2,574 8.1 55.5°
Maximum altitude 13:59:30 11° 259° (W) 2,530 8.2 55.4°
Drops below altitude 10° 14:00:48 10° 247° (WSW) 2,587 8.4 55.3°
Sets 14:05:44 0° 212° (SSW) 3,529 9.0 54.9°
